(360028) = 2005 US430 = 2010 FU53 = 2013 AE28

Discovered at Kitt Peak on 2005-10-28 by Spacewatch.

Orbit

Orbit type: Main Belt

Note: WebGL enabled browser required.

epoch2023-02-25.0
epoch JD2460000.5
perihelion date2022-09-25.53782
perihelion JD2459848.03782
argument of perihelion (°)195.78296
ascending node (°)271.21861
inclination (°)1.70869
eccentricity0.0859040
perihelion distance (AU)2.0216627
Tisserand w.r.t. Jupiter3.7
ΔV w.r.t. Earth (km/sec)8.8
semimajor axis (AU)2.2116526
mean anomaly (°)45.68679
mean daily motion (°/day)0.29965980
aphelion distance (AU)2.402
period (years)3.29
P-vector [x]-0.29227709
P-vector [y]0.88061352
P-vector [z]0.37295299
Q-vector [x]-0.95586893
Q-vector [y]-0.25684790
Q-vector [z]-0.14263152
absolute magnitude18.21
phase slope0.15
uncertainty0
referenceMPO 745323
observations used227
oppositions11
arc length (days)6376
first opposition used2005
last opposition used2023
residual rms (arc-secs)0.79
perturbers coarse indicatorM-v
perturbers precise indicator003Ek
first observation date used2005-10-28.0
last observation date used2023-04-13.0
computer nameMPCLINUX
Minimum Orbit Intersection Distances (in AU)
for orbit epoch: 2460000.5, reference: E2023-G82
Mercury1.7049
Venus1.3035
Earth1.03796
Mars0.39649
Jupiter2.67455
Saturn7.02769
Uranus16.3184
Neptune27.6368

Observations

238 total observations over interval: 2005 10 28.31206 – 2023 04 13.371141
These data are available for download (format description).

Date (UT) J2000 RA J2000 Dec Magn Location Ref
2005 10 28.31206 03 47 09.06 +22 07 20.4 20.5 V 691 – Steward Observatory, Kitt Peak-Spacewatch MPS 151112
2005 10 28.32964 03 47 08.16 +22 07 17.9 20.5 V 691 – Steward Observatory, Kitt Peak-Spacewatch MPS 151112
2005 10 28.34722 03 47 07.30 +22 07 14.8 20.8 V 691 – Steward Observatory, Kitt Peak-Spacewatch MPS 151112
2005 11 01.36055 03 43 43.33 +21 55 20.5 21.1 V 691 – Steward Observatory, Kitt Peak-Spacewatch MPS 151112
2005 11 01.37805 03 43 42.25 +21 55 15.9 20.6 V 691 – Steward Observatory, Kitt Peak-Spacewatch MPS 151112
2005 11 01.39567 03 43 41.25 +21 55 12.7 20.6 V 691 – Steward Observatory, Kitt Peak-Spacewatch MPS 151112
2005 12 06.18987 03 08 24.46 +19 15 35.4 20.6 V G96 – Mt. Lemmon Survey MPS 453886
2005 12 06.19625 03 08 24.10 +19 15 33.8 20.2 V G96 – Mt. Lemmon Survey MPS 453886
2005 12 06.20280 03 08 23.78 +19 15 32.1 20.6 V G96 – Mt. Lemmon Survey MPS 453886
2005 12 06.20911 03 08 23.49 +19 15 30.7 20.1 V G96 – Mt. Lemmon Survey MPS 453886
2007 05 10.38995 15 25 40.65 -20 42 36.2 21.2 V 691 – Steward Observatory, Kitt Peak-Spacewatch MPS 453886
2007 05 10.40758 15 25 39.49 -20 42 31.4 21.4 V 691 – Steward Observatory, Kitt Peak-Spacewatch MPS 453886
2007 05 10.42522 15 25 38.31 -20 42 26.1 21.3 V 691 – Steward Observatory, Kitt Peak-Spacewatch MPS 453886
2008 08 24.40550 00 43 01.06 +07 36 00.6   691 – Steward Observatory, Kitt Peak-Spacewatch MPS 453886
2008 08 24.42307 00 43 00.64 +07 35 59.7   691 – Steward Observatory, Kitt Peak-Spacewatch MPS 453886
2008 08 24.44064 00 43 00.31 +07 35 59.8   691 – Steward Observatory, Kitt Peak-Spacewatch MPS 453886
2008 09 23.31477 00 22 14.84 +05 45 53.7 20.4 V G96 – Mt. Lemmon Survey MPS 453886
2008 09 23.32277 00 22 14.34 +05 45 50.6 20.7 V G96 – Mt. Lemmon Survey MPS 453886
2008 09 23.33082 00 22 13.87 +05 45 48.0 20.5 V G96 – Mt. Lemmon Survey MPS 453886
2008 09 23.33882 00 22 13.36 +05 45 45.0 20.5 V G96 – Mt. Lemmon Survey MPS 453886
2010 03 19.23929 12 41 57.69 -07 53 49.3 21.3 V 691 – Steward Observatory, Kitt Peak-Spacewatch MPS 320791
2010 03 19.25695 12 41 56.70 -07 53 43.5 21.0 V 691 – Steward Observatory, Kitt Peak-Spacewatch MPS 320791
2010 03 19.27225 12 41 55.78 -07 53 38.8 20.6 V 691 – Steward Observatory, Kitt Peak-Spacewatch MPS 320791
2010 03 25.19861 12 36 16.45 -07 19 09.0 20.7 V 691 – Steward Observatory, Kitt Peak-Spacewatch MPS 320791
2010 03 25.21633 12 36 15.37 -07 19 02.2 21.0 V 691 – Steward Observatory, Kitt Peak-Spacewatch MPS 320791
2010 03 25.23402 12 36 14.29 -07 18 55.7 21.0 V 691 – Steward Observatory, Kitt Peak-Spacewatch MPS 320791
2013 01 04.45009 09 43 50.62 +11 52 00.3 21.1 V 691 – Steward Observatory, Kitt Peak-Spacewatch MPS 449789
2013 01 04.46776 09 43 50.22 +11 52 00.2 21.2 V 691 – Steward Observatory, Kitt Peak-Spacewatch MPS 449789
2013 01 04.48543 09 43 49.84 +11 52 00.6 21.1 V 691 – Steward Observatory, Kitt Peak-Spacewatch MPS 449789
2013 01 08.38898 09 42 17.39 +11 53 38.2 20.9 V 691 – Steward Observatory, Kitt Peak-Spacewatch MPS 449789
2013 01 08.40668 09 42 16.86 +11 53 38.8 21.0 V 691 – Steward Observatory, Kitt Peak-Spacewatch MPS 449789
2013 01 08.42475 09 42 16.31 +11 53 39.7 21.4 V 691 – Steward Observatory, Kitt Peak-Spacewatch MPS 449789
2013 01 17.41834 09 36 42.06 +12 07 45.6 20.6 V 691 – Steward Observatory, Kitt Peak-Spacewatch MPS 453886
2013 01 17.43379 09 36 41.31 +12 07 47.5 20.5 V 691 – Steward Observatory, Kitt Peak-Spacewatch MPS 453886
2013 01 17.44925 09 36 40.56 +12 07 49.5 20.4 V 691 – Steward Observatory, Kitt Peak-Spacewatch MPS 453886
2013 02 02.03664 09 22 03.28 +12 58 36.9 20.3   J43 – Oukaimeden Observatory, Marrakech MPS 453886
2013 02 02.04821 09 22 02.48 +12 58 39.4 20.3   J43 – Oukaimeden Observatory, Marrakech MPS 453886
2013 02 02.05973 09 22 01.72 +12 58 42.5 20.5   J43 – Oukaimeden Observatory, Marrakech MPS 453886
2013 02 02.07127 09 22 00.97 +12 58 45.1 20.2   J43 – Oukaimeden Observatory, Marrakech MPS 453886
2013 02 03.34791 09 20 39.952 +13 03 51.12 19.9 w F51 – Pan-STARRS 1, Haleakala MPS 453886
2013 02 03.36254 09 20 38.975 +13 03 54.71 20.0 w F51 – Pan-STARRS 1, Haleakala MPS 453886
2013 02 03.37726 09 20 37.991 +13 03 58.30 20.0 w F51 – Pan-STARRS 1, Haleakala MPS 453886
2013 02 03.39186 09 20 37.014 +13 04 01.88 20.0 w F51 – Pan-STARRS 1, Haleakala MPS 453886
2013 02 04.05959 09 19 53.93 +13 06 41.8 20.3   J43 – Oukaimeden Observatory, Marrakech MPS 453886
2013 02 04.06765 09 19 53.44 +13 06 43.7 20.2   J43 – Oukaimeden Observatory, Marrakech MPS 453886
2013 02 04.07544 09 19 52.90 +13 06 45.4 19.9   J43 – Oukaimeden Observatory, Marrakech MPS 453886
2013 02 04.08333 09 19 52.36 +13 06 47.6 20.2   J43 – Oukaimeden Observatory, Marrakech MPS 453886
2013 02 05.00780 09 18 53.19 +13 10 32.3 20.2   J43 – Oukaimeden Observatory, Marrakech MPS 453886
2013 02 05.01582 09 18 52.63 +13 10 34.2 19.9   J43 – Oukaimeden Observatory, Marrakech MPS 453886
2013 02 05.02358 09 18 52.10 +13 10 36.0 20.1   J43 – Oukaimeden Observatory, Marrakech MPS 453886
2013 02 05.03134 09 18 51.59 +13 10 38.1 20.3   J43 – Oukaimeden Observatory, Marrakech MPS 453886
2013 02 05.03909 09 18 51.07 +13 10 40.0 20.2   J43 – Oukaimeden Observatory, Marrakech MPS 453886
2013 02 06.16794 09 17 38.78 +13 15 15.8 20.2 V 691 – Steward Observatory, Kitt Peak-Spacewatch MPS 453886
2013 02 06.18568 09 17 37.58 +13 15 20.1 20.4 V 691 – Steward Observatory, Kitt Peak-Spacewatch MPS 453886
2013 02 06.20342 09 17 36.41 +13 15 25.1 20.3 V 691 – Steward Observatory, Kitt Peak-Spacewatch MPS 453886
2013 03 03.25695 08 55 10.216 +14 45 27.97 20.6 w F51 – Pan-STARRS 1, Haleakala MPS 457705
2013 03 03.27126 08 55 09.689 +14 45 30.25 20.7 w F51 – Pan-STARRS 1, Haleakala MPS 457705
2013 03 03.28565 08 55 09.149 +14 45 32.46 20.7 w F51 – Pan-STARRS 1, Haleakala MPS 457705
2015 12 08.36602 05 21 11.94 +23 52 45.0 20.2 V G96 – Mt. Lemmon Survey MPS 659543
2015 12 08.37111 05 21 11.57 +23 52 43.9 20.0 V G96 – Mt. Lemmon Survey MPS 659543
2015 12 08.37620 05 21 11.21 +23 52 43.4 20.2 V G96 – Mt. Lemmon Survey MPS 659543
2015 12 08.38127 05 21 10.84 +23 52 42.4 19.9 V G96 – Mt. Lemmon Survey MPS 659543
2015 12 09.50453 05 19 52.724 +23 50 14.09 20.0 w F51 – Pan-STARRS 1, Haleakala MPS 659543
2015 12 09.51839 05 19 51.711 +23 50 12.08 20.1 w F51 – Pan-STARRS 1, Haleakala MPS 659543
2015 12 09.53226 05 19 50.704 +23 50 10.12 20.0 w F51 – Pan-STARRS 1, Haleakala MPS 659543
2015 12 09.54616 05 19 49.691 +23 50 08.00 19.9 w F51 – Pan-STARRS 1, Haleakala MPS 659543
2015 12 16.30250 05 11 56.39 +23 33 45.4 19.8 V G96 – Mt. Lemmon Survey MPS 662560
2015 12 16.30762 05 11 55.97 +23 33 44.5 20.2 V G96 – Mt. Lemmon Survey MPS 662560
2015 12 16.31270 05 11 55.62 +23 33 44.1 20.0 V G96 – Mt. Lemmon Survey MPS 662560
2015 12 16.31777 05 11 55.23 +23 33 43.2 20.2 V G96 – Mt. Lemmon Survey MPS 662560
2015 12 18.33773 05 09 35.97 +23 28 29.7 20.1 r G45 – Space Surveillance Telescope, Atom Site MPS 663876
2015 12 18.33824 05 09 35.95 +23 28 29.2 20.2 r G45 – Space Surveillance Telescope, Atom Site MPS 663876
2015 12 18.34416 05 09 35.48 +23 28 28.0 20.2 r G45 – Space Surveillance Telescope, Atom Site MPS 663876
2015 12 18.34423 05 09 35.48 +23 28 28.4 20.8 r G45 – Space Surveillance Telescope, Atom Site MPS 663876
2015 12 18.35006 05 09 35.09 +23 28 27.4 20.0 r G45 – Space Surveillance Telescope, Atom Site MPS 663876
2015 12 18.35013 05 09 35.07 +23 28 27.1 20.5 r G45 – Space Surveillance Telescope, Atom Site MPS 663876
2015 12 18.35592 05 09 34.66 +23 28 26.3 20.6 r G45 – Space Surveillance Telescope, Atom Site MPS 663876
2015 12 18.35599 05 09 34.68 +23 28 26.2 20.1 r G45 – Space Surveillance Telescope, Atom Site MPS 663876
2016 01 02.24874 04 54 53.35 +22 49 29.8 20.2 V G96 – Mt. Lemmon Survey MPS 668101
2016 01 02.25334 04 54 53.15 +22 49 28.8 20.1 V G96 – Mt. Lemmon Survey MPS 668101
2016 01 02.25795 04 54 52.89 +22 49 28.3 20.0 V G96 – Mt. Lemmon Survey MPS 668101
2016 01 02.26257 04 54 52.67 +22 49 27.4 20.4 V G96 – Mt. Lemmon Survey MPS 668101
2016 01 08.23231 04 50 50.906 +22 35 47.59 20.5 w F51 – Pan-STARRS 1, Haleakala MPS 668101
2016 01 08.24583 04 50 50.414 +22 35 45.95 20.6 w F51 – Pan-STARRS 1, Haleakala MPS 668101
2016 02 09.14731 04 52 59.91 +22 08 26.0 20.9 V G96 – Mt. Lemmon Survey MPS 682214
2016 02 09.15190 04 53 00.03 +22 08 25.2 20.3 V G96 – Mt. Lemmon Survey MPS 682214
2016 02 09.15649 04 53 00.24 +22 08 25.7 20.7 V G96 – Mt. Lemmon Survey MPS 682214
